Location: Unspecified
(0.0000°N, 0.0000°E)
Time: 09:04:42
(UTC+00:00)

Explorer 11/Cluster Stage 4 - Pass Details

Date: 16 July 2020
Orbit: 467 x 1259 km, 28.8° (Epoch: 03 August)

Event Time Altitude Azimuth Distance (km) Brightness Sun altitude
Rises 06:50:31 0° 266° (W) 2,485 8.6 10.3°
Reaches altitude 10° 06:53:07 10° 285° (WNW) 1,607 7.8 10.9°
Maximum altitude 06:55:45 19° 332° (NNW) 1,189 7.6 11.5°
Drops below altitude 10° 06:58:29 10° 19° (NNE) 1,689 9.0 12.2°
Sets 07:01:19 0° 38° (NE) 2,663 10.4 12.8°
